STARLINK-1032

Last updated on Thu Dec 12 2019 00:02:03 GMT+0000 (Coordinated Universal Time)

1 44737U 19074AA 19345.51374248 -.00024750 00000-0 -17256-3 0 9996 2 44737 53.0095 21.8966 0001715 34.4752 325.6376 15.73176857 4725
UTC large
Height (km)
Speed (km/s)
/
Latitude / Longitude
Inclination (degrees)
Orbital Period (minutes)
Azimuth
Elevation
Range (km)
Doppler Factor

Next 0 passes for location: London (51.5072 / 0.1276)

Sorry there are no passes over London.